Hakuyuumaru — JD3219 — position and weather

sailwx.info

Track history (hours):
 
Tides and Currents Weather Stations Pressure Air Temp Water Temp Dewpoint Dewpoint Depression Visibility Wind Speed Wind Dir Waves Ship Positions

Hakuyuumaru

Last reported at 2014-Jul-25 11:22 UTC. Time now 2014-Jul-28 04:20 UTC.
Position N 34°51' E 139°11'.

Length 71 m; draft 4.5 m.

Type: Cargo ship. MMSI: 431002761.

Date/timePositionNaut miles runAvg speedWind from/ knotsBaromVisibWave heightAir tempDewpointWater temp
2014-Jul-25 11:22N 34°51' E 139°11'16 8.8
2014-Jul-25 09:33N 35°00' E 139°27'10 9.7
2014-Jul-25 08:33N 35°05' E 139°37'10 9.7
2014-Jul-25 07:33N 35°12' E 139°46'9 9.4
2014-Jul-25 06:33N 35°21' E 139°42'9 8.7
2014-Jul-25 05:33N 35°30' E 139°43'0 0.1
2014-Jul-25 04:31N 35°30' E 139°42'0 0.0
2014-Jul-25 03:31N 35°30' E 139°42'0 0.0
2014-Jul-25 02:31N 35°30' E 139°42'0 0.0
2014-Jul-25 01:19N 35°30' E 139°42'0 0.0
2014-Jul-25 00:28N 35°30' E 139°42'0 0.0
2014-Jul-24 23:31N 35°30' E 139°42'3 3.5
2014-Jul-24 22:31N 35°26' E 139°43'0 0.0
2014-Jul-24 21:32N 35°26' E 139°43'0 0.0
2014-Jul-24 20:31N 35°26' E 139°43'0 0.0
2014-Jul-24 19:28N 35°26' E 139°43'0 0.0
2014-Jul-24 18:31N 35°26' E 139°43'0 0.1
2014-Jul-24 17:31N 35°26' E 139°43'0 0.0
2014-Jul-24 16:31N 35°26' E 139°43'0 0.0
2014-Jul-24 15:33N 35°26' E 139°43'9 9.0
2014-Jul-24 14:33N 35°17' E 139°45'1010.0
2014-Jul-24 13:33N 35°08' E 139°47'10 9.8
2014-Jul-24 12:33N 34°58' E 139°43'12 8.8
2014-Jul-24 11:11N 34°53' E 139°57'6 9.8
2014-Jul-24 10:33N 34°56' E 140°03'28 9.3
2014-Jul-24 07:33N 35°15' E 140°29'1010.4
2014-Jul-24 06:33N 35°23' E 140°37'1010.5
2014-Jul-24 05:33N 35°31' E 140°45'1111.0
2014-Jul-24 04:32N 35°40' E 140°53'2210.5
2014-Jul-24 02:24N 36°02' E 140°57'3010.7
2014-Jul-23 23:33N 36°32' E 140°60'  
Track history (hours):
 
Tides and Currents Weather Stations Pressure Air Temp Water Temp Dewpoint Dewpoint Depression Visibility Wind Speed Wind Dir Waves Ship Positions

Hakuyuumaru

Last reported at 2014-Jul-25 11:22 UTC. Time now 2014-Jul-28 04:20 UTC.
Position N 34°51' E 139°11'.

Length 71 m; draft 4.5 m.

Type: Cargo ship. MMSI: 431002761.

Date/timePositionNaut miles runAvg speedWind from/ knotsBaromVisibWave heightAir tempDewpointWater temp
2014-Jul-25 11:22N 34°51' E 139°11'16 8.8
2014-Jul-25 09:33N 35°00' E 139°27'10 9.7
2014-Jul-25 08:33N 35°05' E 139°37'10 9.7
2014-Jul-25 07:33N 35°12' E 139°46'9 9.4
2014-Jul-25 06:33N 35°21' E 139°42'9 8.7
2014-Jul-25 05:33N 35°30' E 139°43'0 0.1
2014-Jul-25 04:31N 35°30' E 139°42'0 0.0
2014-Jul-25 03:31N 35°30' E 139°42'0 0.0
2014-Jul-25 02:31N 35°30' E 139°42'0 0.0
2014-Jul-25 01:19N 35°30' E 139°42'0 0.0
2014-Jul-25 00:28N 35°30' E 139°42'0 0.0
2014-Jul-24 23:31N 35°30' E 139°42'3 3.5
2014-Jul-24 22:31N 35°26' E 139°43'0 0.0
2014-Jul-24 21:32N 35°26' E 139°43'0 0.0
2014-Jul-24 20:31N 35°26' E 139°43'0 0.0
2014-Jul-24 19:28N 35°26' E 139°43'0 0.0
2014-Jul-24 18:31N 35°26' E 139°43'0 0.1
2014-Jul-24 17:31N 35°26' E 139°43'0 0.0
2014-Jul-24 16:31N 35°26' E 139°43'0 0.0
2014-Jul-24 15:33N 35°26' E 139°43'9 9.0
2014-Jul-24 14:33N 35°17' E 139°45'1010.0
2014-Jul-24 13:33N 35°08' E 139°47'10 9.8
2014-Jul-24 12:33N 34°58' E 139°43'12 8.8
2014-Jul-24 11:11N 34°53' E 139°57'6 9.8
2014-Jul-24 10:33N 34°56' E 140°03'28 9.3
2014-Jul-24 07:33N 35°15' E 140°29'1010.4
2014-Jul-24 06:33N 35°23' E 140°37'1010.5
2014-Jul-24 05:33N 35°31' E 140°45'1111.0
2014-Jul-24 04:32N 35°40' E 140°53'2210.5
2014-Jul-24 02:24N 36°02' E 140°57'3010.7
2014-Jul-23 23:33N 36°32' E 140°60'  

Dump ship's entire track history